This is the latest recevied weather packets stored in our database for station/object WC4PEM-7. If no packets are shown the sender has not sent any weather packets the latest 10 day(s).
| Time | Temp. | Humidity | Pressure | Rain* | Wind** | Luminosity | Snow |
|---|---|---|---|---|---|---|---|
| 1778187202 | 33.33° C | 38% | 1013.4 hPa | 0 mm | - | - | - |
| 1778186902 | 33.33° C | 32% | 1013.4 hPa | 0 mm | - | - | - |
| 1778186750 | 33.33° C | 31% | 1013.4 hPa | 0 mm | - | - | - |
| 1778186602 | 33.33° C | 31% | 1013.4 hPa | 0 mm | - | - | - |
| 1778186302 | 33.33° C | 27% | 1013.3 hPa | 0 mm | - | - | - |
| 1778186002 | 33.33° C | 25% | 1013.4 hPa | 0 mm | - | - | - |
| 1778185702 | 33.33° C | 25% | 1013.5 hPa | 0 mm | - | - | - |
| 1778185402 | 33.33° C | 24% | 1013.5 hPa | 0 mm | - | - | - |
| 1778185102 | 33.33° C | 24% | 1013.6 hPa | 0 mm | - | - | - |
| 1778184802 | 33.33° C | 26% | 1013.5 hPa | 0 mm | - | - | - |
| 1778184502 | 32.78° C | 26% | 1013.7 hPa | 0 mm | - | - | - |
| 1778184202 | 32.78° C | 26% | 1013.8 hPa | 0 mm | - | - | - |
| 1778183902 | 32.78° C | 27% | 1013.7 hPa | 0 mm | - | - | - |
| 1778183602 | 32.78° C | 30% | 1013.8 hPa | 0 mm | - | - | - |
| 1778183302 | 32.78° C | 31% | 1013.9 hPa | 0 mm | - | - | - |
| 1778183002 | 33.33° C | 32% | 1013.8 hPa | 0 mm | - | - | - |
| 1778182702 | 33.89° C | 35% | 1013.7 hPa | 0 mm | - | - | - |
| 1778182402 | 33.89° C | 40% | 1013.7 hPa | 0 mm | - | - | - |
| 1778182103 | 33.33° C | 41% | 1013.8 hPa | 0 mm | - | - | - |
| 1778181802 | 34.44° C | 42% | 1013.8 hPa | 0 mm | - | - | - |
| 1778181536 | 33.89° C | 38% | 1013.8 hPa | 0 mm | - | - | - |
| 1778181502 | 33.89° C | 38% | 1013.8 hPa | 0 mm | - | - | - |
| 1778181202 | 33.89° C | 36% | 1014 hPa | 0 mm | - | - | - |
| 1778180903 | 33.89° C | 38% | 1013.9 hPa | 0 mm | - | - | - |
| 1778180602 | 33.89° C | 39% | 1013.9 hPa | 0 mm | - | - | - |
* Rain latest hour (hover to see other rain measurements)
** Current wind speed in m/s (hover to see current wind gust speed)